Weather History for Spokane Fairchild, WA

Change the Weather History Date:

Sunday, October 7, 2012

  Actual Average Record
Temperature  
Mean Temperature 50 °F -  
Max Temperature 67 °F 60 °F 73 °F (1996)
Min Temperature 32 °F 38 °F 32 °F (1997)
Degree Days  
Heating Degree Days 16    
Moisture  
Dew Point 23 °F    
Average Humidity 42    
Maximum Humidity 68    
Minimum Humidity 19    
Precipitation  
Precipitation 0.00 in - - ()
Sea Level Pressure  
Sea Level Pressure 30.14 in    
Wind  
Wind Speed 3 mph (SSW)    
Max Wind Speed 9 mph    
Max Gust Speed -    
Visibility 10 miles    
Events      
Averages and records for this station are not official NWS values.
T = Trace of Precipitation, MM = Missing Value Source: NWS Daily Summary

Daily Weather History Graph

Daily Weather History Graph

Search for Another Location

Airport:

Trip Planner

Search our weather history database for the weather conditions in past years. The results will help you decide how hot, cold, wet, or windy it might be!

Date:

Astronomy

Oct. 07, 2012 Rise Set
Actual Time 6:58 AM PDT 6:16 PM PDT
Civil Twilight 6:28 AM PDT 6:47 PM PDT
Nautical Twilight 5:52 AM PDT 7:23 PM PDT
Astronomical Twilight 5:16 AM PDT 7:59 PM PDT
Moon 11:16 PM PDT (10/7) 1:56 PM PDT (10/7)
Length of Visible Light 12h 19m
Length of Day
11h 17m
Waning Gibbous, 55% of the Moon is Illuminated
Oct 7
Waning Gibbous
Oct 8
Last Quarter
Oct 15
New
Oct 21
First Quarter
Oct 29
Full

Hourly Weather History & Observations

Time (PDT) Temp. Windchill Dew Point Humidity Pressure Visibility Wind Dir Wind Speed Gust Speed Precip Events Conditions
12:06 AM 37.4 °F 34.9 °F 15.8 °F 41% 30.23 in 10.0 mi ENE 3.5 mph - N/A   Clear
12:17 AM 35.6 °F 32.8 °F 21.2 °F 56% 30.23 in 10.0 mi East 3.5 mph - N/A   Clear
12:55 AM 43.0 °F 41.3 °F 19.9 °F 40% 30.21 in 10.0 mi East 3.5 mph - 0.00 in   Clear
1:55 AM 43.3 °F - 21.9 °F 43% 30.20 in 10.0 mi Calm Calm - N/A   Clear
2:55 AM 40.8 °F - 22.1 °F 47% 30.20 in 10.0 mi Calm Calm - N/A   Clear
3:23 AM 37.4 °F - 23.0 °F 56% 30.20 in 10.0 mi Calm Calm - N/A   Clear
3:43 AM 37.4 °F - 21.2 °F 52% 30.20 in 10.0 mi Calm Calm - N/A   Clear
3:55 AM 36.1 °F - 22.1 °F 57% 30.20 in 10.0 mi Calm Calm - 0.00 in   Clear
3:57 AM 35.6 °F - 23.0 °F 60% 30.20 in 10.0 mi Calm Calm - N/A   Clear
4:21 AM 33.8 °F 30.8 °F 21.2 °F 60% 30.21 in 10.0 mi North 3.5 mph - N/A   Clear
4:55 AM 32.9 °F - 21.2 °F 62% 30.20 in 10.0 mi Calm Calm - 0.00 in   Clear
5:55 AM 34.7 °F 31.8 °F 25.0 °F 68% 30.19 in 10.0 mi East 3.5 mph - N/A   Clear
6:55 AM 38.1 °F 35.7 °F 26.4 °F 63% 30.18 in 10.0 mi SE 3.5 mph - N/A   Clear
7:55 AM 37.9 °F 33.5 °F 25.7 °F 61% 30.20 in 10.0 mi NNE 5.8 mph - N/A   Clear
8:15 AM 39.2 °F 37.0 °F 24.8 °F 56% 30.20 in 10.0 mi NE 3.5 mph - N/A   Clear
8:32 AM 41.0 °F 38.0 °F 24.8 °F 53% 30.20 in 10.0 mi ENE 4.6 mph - N/A   Clear
8:55 AM 43.0 °F 41.3 °F 26.2 °F 52% 30.19 in 10.0 mi East 3.5 mph - 0.00 in   Clear
9:55 AM 50.2 °F - 25.5 °F 38% 30.19 in 10.0 mi East 3.5 mph - N/A   Clear
10:55 AM 57.0 °F - 22.6 °F 26% 30.17 in 10.0 mi Calm Calm - N/A   Clear
11:55 AM 60.3 °F - 22.6 °F 24% 30.15 in 10.0 mi WSW 3.5 mph - N/A   Clear
12:55 PM 64.2 °F - 21.4 °F 19% 30.12 in 10.0 mi SW 6.9 mph - N/A   Clear
1:55 PM 66.0 °F - 21.7 °F 19% 30.09 in 10.0 mi WSW 8.1 mph - N/A   Clear
2:55 PM 66.9 °F - 22.5 °F 19% 30.08 in 10.0 mi WSW 9.2 mph - N/A   Clear
3:55 PM 67.3 °F - 22.8 °F 19% 30.05 in 10.0 mi SW 6.9 mph - N/A   Clear
4:55 PM 66.2 °F - 23.4 °F 20% 30.04 in 10.0 mi SW 8.1 mph - N/A   Clear
5:55 PM 61.9 °F - 24.3 °F 24% 30.03 in 10.0 mi SW 6.9 mph - N/A   Clear
6:55 PM 55.9 °F - 23.5 °F 29% 30.04 in 10.0 mi WSW 3.5 mph - N/A   Clear
7:55 PM 53.6 °F - 23.2 °F 31% 30.03 in 10.0 mi SW 3.5 mph - N/A   Clear
8:55 PM 50.7 °F - 22.6 °F 33% 30.03 in 10.0 mi Calm Calm - N/A   Clear
9:55 PM 50.2 °F - 22.6 °F 34% 30.01 in 10.0 mi WSW 5.8 mph - N/A   Clear
10:55 PM 47.3 °F - 23.2 °F 39% 30.00 in 10.0 mi WSW 4.6 mph - N/A   Clear
11:55 PM 47.5 °F - 23.4 °F 39% 29.99 in 10.0 mi WSW 3.5 mph - N/A   Clear